#timestamp,LO_Frequency,Hit,StdDev 
1551056415.3,286046999.7,N
1551056435.1,286047002.1,N
1551056455.8,286047003.9,Y
1551056475.7,286047002.1,P
1551056495.5,286047000.5,N
1551056515.4,286047000.3,N
1551056535.2,286046998.2,N
1551056555.0,286046999.4,N
1551056555.9,286046999.4,N
1551056575.8,286046998.8,N
1551056595.6,286047001.2,N
1551056615.5,286047000.3,N
1551056635.3,286047003.6,Y
1551056655.1,286047003.2,P
1551056675.9,286047003.4,N
1551056695.7,286047001.7,N
1551056715.5,286047004.4,Y
1551056735.4,286047000.0,P
1551056755.2,286047000.2,N
1551056775.1,286047001.1,N
1551056776.0,286047001.1,N
1551056795.8,286046999.8,N
1551056815.6,286047000.6,N
1551056835.5,286046998.4,N
1551056855.3,286046996.7,Y
1551056875.2,286046996.9,P
1551056895.9,286046998.9,N
1551056915.7,286047001.1,N
1551056935.6,286046998.5,N
1551056955.4,286046998.2,N
1551056975.3,286046996.7,N
1551056995.1,286046997.0,N
1551056996.0,286046997.0,N
1551057015.8,286046999.0,N
1551057035.7,286046996.8,N
1551057055.5,286046997.0,N
1551057075.3,286046997.1,N
1551057095.2,286046999.4,N
1551057115.0,286046999.3,N
1551057115.9,286046999.3,N
1551057135.8,286046999.1,N
1551057155.6,286046999.1,N
1551057175.4,286046999.6,N
1551057195.3,286046996.5,N
1551057215.1,286046996.6,N
1551057235.9,286046996.6,N
1551057255.7,286046999.0,N
1551057275.5,286046996.6,N
1551057295.4,286047000.5,N
1551057315.2,286047001.2,N
1551057335.0,286046998.8,N
1551057335.9,286046998.8,N
1551057355.8,286046999.0,N
1551057375.6,286046997.2,N
1551057395.5,286046996.8,N
1551057415.3,286046997.0,N
1551057435.1,286046996.5,N
1551057455.9,286046998.9,N
1551057475.7,286046998.4,N
1551057495.6,286046999.3,N
1551057515.4,286046996.8,N
1551057535.2,286046997.8,N
1551057555.1,286046997.0,N
1551057556.0,286046997.0,N
1551057575.8,286046997.1,N
1551057595.6,286046997.2,N
1551057615.5,286046997.1,N
1551057635.3,286046996.9,N
1551057655.2,286047001.0,N
1551057675.0,286046998.1,N
1551057675.9,286046998.1,N
1551057695.7,286047000.9,N
1551057715.6,286047000.8,N
1551057735.4,286047000.9,N
1551057755.3,286047002.8,N
1551057775.1,286047002.8,N
1551057795.8,286047002.3,N
1551057815.7,286047002.4,N
1551057835.5,286047000.6,N
1551057855.4,286046998.5,N
1551057875.2,286046999.4,N
1551057895.0,286046996.6,N
1551057895.9,286046996.6,N
1551057915.8,286046996.8,N
1551057935.6,286046997.1,N
1551057955.5,286046996.6,N
1551057975.3,286046998.4,N
1551057995.3,286046999.2,N
1551058015.1,286046996.9,N
1551058035.9,286046998.3,N
1551058055.7,286047000.5,N
1551058075.6,286047002.4,N
1551058095.4,286046999.9,N
1551058115.2,286047000.0,N
1551058135.1,286047002.2,N
1551058136.0,286047002.2,N
1551058155.8,286047000.1,N
1551058175.1,286046998.1,N
1551058176.0,286046998.1,N
1551058195.8,286047001.0,N
1551058215.7,286047000.9,N
1551058235.5,286047000.8,N
1551058255.3,286046998.5,N
1551058275.2,286046998.5,N
1551058295.0,286046999.0,N
1551058295.9,286046999.0,N
1551058315.8,286046999.4,N
1551058335.6,286046998.4,N
1551058355.4,286046999.3,N
1551058375.3,286046997.2,N
1551058395.1,286046995.3,N
1551058415.8,286046997.4,N
1551058435.7,286046996.9,N
1551058455.5,286046996.9,N
1551058475.4,286046998.2,N
1551058495.2,286046999.4,N
1551058515.0,286046999.1,N
1551058515.9,286046999.1,N
1551058535.8,286046998.6,N
1551058555.6,286046998.5,N
1551058575.4,286046999.5,N
1551058595.3,286046998.3,N
1551058615.1,286046998.7,N
1551058635.9,286046998.9,N
1551058655.7,286046999.1,N
1551058675.5,286046998.9,N
1551058695.4,286046999.4,N
1551058715.2,286046999.0,N
1551058735.1,286047001.2,N
1551058736.0,286047001.2,N
1551058755.8,286046998.3,N
1551058775.6,286046996.7,N
1551058795.5,286046999.2,N
1551058815.2,286047000.1,N
1551058835.1,286047003.1,N
1551058836.0,286047003.1,N
1551058855.8,286047001.8,N
1551058875.6,286047002.6,N
1551058895.5,286047002.3,N
1551058915.3,286047001.0,N
1551058935.1,286047000.4,N
1551058955.9,286046999.7,N
1551058975.7,286047001.5,N
1551058995.6,286047002.0,N
1551059015.4,286047004.3,N
1551059035.2,286047000.0,N
1551059055.1,286046999.9,N
1551059056.0,286046999.9,N
1551059075.8,286047002.7,N
1551059095.7,286047001.8,N
1551059115.5,286047004.3,N
1551059135.3,286047004.3,N
1551059155.2,286046999.7,N
1551059175.0,286046999.7,N
1551059175.9,286046999.7,N
1551059195.8,286046998.5,N
1551059215.6,286046998.3,N
1551059235.4,286046999.0,N
1551059255.3,286047000.9,N
1551059275.1,286046999.0,N
1551059295.9,286046996.7,N
1551059315.7,286046999.5,N
1551059335.5,286046999.3,N
1551059355.4,286046998.6,N
1551059375.2,286047001.1,N
1551059395.0,286046999.8,N
1551059395.9,286046999.8,N
1551059415.8,286047002.4,N
1551059435.6,286046999.9,N
1551059455.5,286046998.9,N
1551059475.3,286046998.2,N
1551059495.1,286047000.4,N
1551059515.9,286046999.7,N
1551059535.7,286047002.3,N
1551059555.6,286047000.1,N
1551059575.4,286047002.7,N
1551059595.2,286046999.7,N
1551059615.1,286046998.2,N
1551059616.0,286046998.2,N
1551059635.8,286047001.1,N
1551059655.1,286046999.7,N
1551059656.0,286046999.7,N
1551059675.8,286047002.6,N
1551059695.6,286047002.5,N
1551059715.5,286047003.8,N
1551059735.6,286047002.3,N
1551059755.5,286047001.6,N
1551059775.3,286047003.7,N
1551059795.1,286047001.6,N
1551059815.9,286047001.4,N
1551059835.7,286047000.9,N
1551059855.6,286047000.8,N
1551059875.4,286047000.5,N
1551059895.2,286047001.0,N
1551059915.1,286046999.8,N
1551059916.0,286046999.8,N
1551059935.8,286047002.8,N
1551059955.7,286047002.2,N
1551059975.5,286047002.1,N
1551059995.3,286047001.9,N
